Time,TemperatureF,DewpointF,PressureIn,WindDirection,WindDirectionDegrees,WindSpeedMPH,WindSpeedGustMPH,Humidity,HourlyPrecipIn,Conditions,Clouds,dailyrainin,SolarRadiationWatts/m^2,SoftwareType,DateUTC
2013-04-18 00:00:00,67.6,67.3,29.98,SSE,157,0.0,0.0,99,0.00,CLR,,0.00,0.0,WeatherDisplay:10.37,2013-04-17 14:00:00,
2013-04-18 00:05:00,67.6,67.3,29.98,SE,135,0.0,0.0,99,0.00,CLR,,0.00,0.0,WeatherDisplay:10.37,2013-04-17 14:05:00,
2013-04-18 00:10:00,67.8,67.5,29.98,SSE,147,0.0,2.0,99,0.00,CLR,,0.00,0.0,WeatherDisplay:10.37,2013-04-17 14:10:00,
2013-04-18 00:15:00,67.6,67.3,29.98,South,171,0.0,2.0,99,0.00,CLR,,0.00,0.0,WeatherDisplay:10.37,2013-04-17 14:15:00,
2013-04-18 00:20:00,67.6,67.3,29.98,South,180,0.0,0.0,99,0.00,CLR,,0.00,0.0,WeatherDisplay:10.37,2013-04-17 14:20:00,
2013-04-18 00:25:00,67.5,67.2,29.98,South,180,0.0,0.0,99,0.00,CLR,,0.00,0.0,WeatherDisplay:10.37,2013-04-17 14:25:00,
2013-04-18 00:30:00,67.3,67.0,29.98,South,180,0.0,2.0,99,0.00,CLR,,0.00,0.0,WeatherDisplay:10.37,2013-04-17 14:30:00,
2013-04-18 00:35:00,67.1,66.8,29.98,North,0,0.0,0.0,99,0.00,CLR,,0.00,0.0,WeatherDisplay:10.37,2013-04-17 14:35:00,
2013-04-18 00:40:00,66.9,66.6,29.97,North,0,0.0,0.0,99,0.00,CLR,,0.00,0.0,WeatherDisplay:10.37,2013-04-17 14:40:00,
2013-04-18 00:45:00,67.1,66.8,29.97,North,0,0.0,0.0,99,0.00,CLR,,0.00,0.0,WeatherDisplay:10.37,2013-04-17 14:45:00,
2013-04-18 00:50:00,66.9,66.6,29.97,North,0,0.0,0.0,99,0.00,CLR,,0.00,0.0,WeatherDisplay:10.37,2013-04-17 14:50:00,
2013-04-18 00:55:00,66.4,66.1,29.97,North,0,0.0,0.0,99,0.00,CLR,,0.00,0.0,WeatherDisplay:10.37,2013-04-17 14:55:00,
2013-04-18 01:00:00,66.4,66.1,29.97,NNE,32,0.0,0.0,99,0.00,CLR,,0.00,0.0,WeatherDisplay:10.37,2013-04-17 15:00:00,
2013-04-18 01:05:00,66.5,66.2,29.97,ESE,120,0.0,0.0,99,0.00,CLR,,0.00,0.0,WeatherDisplay:10.37,2013-04-17 15:05:00,
2013-04-18 01:10:00,66.2,65.9,29.97,SE,135,0.0,0.0,99,0.00,CLR,,0.00,0.0,WeatherDisplay:10.37,2013-04-17 15:10:00,
2013-04-18 01:15:00,66.2,65.9,29.97,SSE,155,0.0,0.0,99,0.00,CLR,,0.00,0.0,WeatherDisplay:10.37,2013-04-17 15:15:00,
2013-04-18 01:20:00,66.2,65.9,29.97,South,178,0.0,0.0,99,0.00,CLR,,0.00,0.0,WeatherDisplay:10.37,2013-04-17 15:20:00,
2013-04-18 01:25:00,66.2,65.9,29.97,SSE,164,0.0,0.0,99,0.00,CLR,,0.00,0.0,WeatherDisplay:10.37,2013-04-17 15:25:00,
2013-04-18 01:30:00,66.2,65.9,29.97,SSE,163,0.0,0.0,99,0.00,CLR,,0.00,0.0,WeatherDisplay:10.37,2013-04-17 15:30:00,
2013-04-18 01:35:00,66.2,65.9,29.97,South,178,0.0,0.0,99,0.00,CLR,,0.00,0.0,WeatherDisplay:10.37,2013-04-17 15:35:00,
2013-04-18 01:40:00,66.0,65.7,29.97,South,180,0.0,0.0,99,0.00,CLR,,0.00,0.0,WeatherDisplay:10.37,2013-04-17 15:40:00,
2013-04-18 01:45:00,66.0,65.7,29.96,South,180,0.0,0.0,99,0.00,CLR,,0.00,0.0,WeatherDisplay:10.37,2013-04-17 15:45:00,
2013-04-18 01:50:00,66.2,65.9,29.96,South,180,0.0,0.0,99,0.00,CLR,,0.00,0.0,WeatherDisplay:10.37,2013-04-17 15:50:00,
2013-04-18 01:55:00,66.2,65.9,29.96,South,180,0.0,0.0,99,0.00,CLR,,0.00,0.0,WeatherDisplay:10.37,2013-04-17 15:55:00,
2013-04-18 02:00:00,66.2,65.9,29.96,South,180,0.0,0.0,99,0.00,CLR,,0.00,0.0,WeatherDisplay:10.37,2013-04-17 16:00:00,
2013-04-18 02:05:00,66.2,65.9,29.96,South,180,0.0,0.0,99,0.00,CLR,,0.00,0.0,WeatherDisplay:10.37,2013-04-17 16:05:00,
2013-04-18 02:10:00,66.4,66.1,29.96,South,180,0.0,0.0,99,0.00,CLR,,0.00,0.0,WeatherDisplay:10.37,2013-04-17 16:10:00,
2013-04-18 02:15:00,66.7,66.5,29.96,SSE,157,0.0,0.0,99,0.00,CLR,,0.00,0.0,WeatherDisplay:10.37,2013-04-17 16:15:00,
2013-04-18 02:20:00,66.9,66.6,29.96,ESE,105,0.0,0.0,99,0.00,CLR,,0.00,0.0,WeatherDisplay:10.37,2013-04-17 16:20:00,
2013-04-18 02:25:00,66.9,66.6,29.96,East,90,0.0,0.0,99,0.00,CLR,,0.00,0.0,WeatherDisplay:10.37,2013-04-17 16:25:00,
2013-04-18 02:30:00,66.8,66.5,29.95,East,90,0.0,0.0,99,0.00,CLR,,0.00,0.0,WeatherDisplay:10.37,2013-04-17 16:30:00,
2013-04-18 02:35:00,66.7,66.5,29.95,East,90,0.0,0.0,99,0.00,CLR,,0.00,0.0,WeatherDisplay:10.37,2013-04-17 16:35:00,
2013-04-18 02:40:00,66.6,66.3,29.95,East,90,0.0,0.0,99,0.00,CLR,,0.00,0.0,WeatherDisplay:10.37,2013-04-17 16:40:00,
2013-04-18 02:45:00,66.4,66.1,29.95,East,90,0.0,0.0,99,0.00,CLR,,0.00,0.0,WeatherDisplay:10.37,2013-04-17 16:45:00,
2013-04-18 02:50:00,66.2,65.9,29.95,East,90,0.0,0.0,99,0.00,CLR,,0.00,0.0,WeatherDisplay:10.37,2013-04-17 16:50:00,
2013-04-18 02:55:00,66.2,65.9,29.95,East,90,0.0,0.0,99,0.00,CLR,,0.00,0.0,WeatherDisplay:10.37,2013-04-17 16:55:00,
2013-04-18 03:00:00,66.2,65.9,29.95,East,90,0.0,2.0,99,0.00,CLR,,0.00,0.0,WeatherDisplay:10.37,2013-04-17 17:00:00,
2013-04-18 03:05:00,66.4,66.1,29.95,SE,143,1.0,3.0,99,0.00,CLR,,0.00,0.0,WeatherDisplay:10.37,2013-04-17 17:05:00,
2013-04-18 03:10:00,66.4,66.1,29.95,South,176,1.0,2.0,99,0.00,CLR,,0.00,0.0,WeatherDisplay:10.37,2013-04-17 17:10:00,
2013-04-18 03:15:00,66.4,66.1,29.95,South,180,0.0,2.0,99,0.00,CLR,,0.00,0.0,WeatherDisplay:10.37,2013-04-17 17:15:00,
2013-04-18 03:20:00,66.4,66.1,29.95,SSE,151,0.0,0.0,99,0.00,CLR,,0.00,0.0,WeatherDisplay:10.37,2013-04-17 17:20:00,
2013-04-18 03:25:00,66.2,65.9,29.95,SE,137,0.0,0.0,99,0.00,CLR,,0.00,0.0,WeatherDisplay:10.37,2013-04-17 17:25:00,
2013-04-18 03:30:00,66.0,65.7,29.95,SE,135,0.0,0.0,99,0.00,CLR,,0.00,0.0,WeatherDisplay:10.37,2013-04-17 17:30:00,
2013-04-18 03:35:00,65.8,65.6,29.95,SE,138,0.0,0.0,99,0.00,CLR,,0.00,0.0,WeatherDisplay:10.37,2013-04-17 17:35:00,
2013-04-18 03:45:00,65.8,65.6,29.95,SE,135,0.0,1.0,99,0.00,CLR,,0.00,0.0,WeatherDisplay:10.37,2013-04-17 17:45:00,
2013-04-18 03:50:00,65.6,65.3,29.95,SE,135,0.0,0.0,99,0.00,CLR,,0.00,0.0,WeatherDisplay:10.37,2013-04-17 17:50:00,
2013-04-18 03:55:00,65.5,65.2,29.95,SE,135,1.0,2.0,99,0.00,CLR,,0.00,0.0,WeatherDisplay:10.37,2013-04-17 17:55:00,
2013-04-18 04:00:00,65.5,65.2,29.95,SE,135,0.0,3.0,99,0.00,CLR,,0.00,0.0,WeatherDisplay:10.37,2013-04-17 18:00:00,
2013-04-18 04:05:00,65.5,65.2,29.96,SE,135,0.0,0.0,99,0.00,CLR,,0.00,0.0,WeatherDisplay:10.37,2013-04-17 18:05:00,
2013-04-18 04:10:00,65.3,65.0,29.95,SE,137,1.0,4.0,99,0.00,CLR,,0.00,0.0,WeatherDisplay:10.37,2013-04-17 18:10:00,
2013-04-18 04:15:00,65.3,65.0,29.96,SSE,164,2.0,4.0,99,0.00,CLR,,0.00,0.0,WeatherDisplay:10.37,2013-04-17 18:15:00,
2013-04-18 04:20:00,65.1,64.8,29.95,South,177,1.0,3.0,99,0.00,CLR,,0.00,0.0,WeatherDisplay:10.37,2013-04-17 18:20:00,
2013-04-18 04:25:00,65.1,64.8,29.96,South,188,0.0,2.0,99,0.00,CLR,,0.00,0.0,WeatherDisplay:10.37,2013-04-17 18:25:00,
2013-04-18 04:30:00,64.9,64.7,29.96,South,189,1.0,3.0,99,0.00,CLR,,0.00,0.0,WeatherDisplay:10.37,2013-04-17 18:30:00,
2013-04-18 04:35:00,64.9,64.6,29.96,SSE,158,1.0,2.0,99,0.00,CLR,,0.00,0.0,WeatherDisplay:10.37,2013-04-17 18:35:00,
2013-04-18 04:40:00,64.6,64.3,29.96,SE,135,0.0,1.0,99,0.00,CLR,,0.00,0.0,WeatherDisplay:10.37,2013-04-17 18:40:00,
2013-04-18 04:45:00,64.6,64.3,29.96,SE,135,0.0,1.0,99,0.00,CLR,,0.00,0.0,WeatherDisplay:10.37,2013-04-17 18:45:00,
2013-04-18 04:50:00,64.6,64.3,29.96,SE,137,1.0,2.0,99,0.00,CLR,,0.00,0.0,WeatherDisplay:10.37,2013-04-17 18:50:00,
2013-04-18 04:55:00,64.4,64.1,29.97,SSE,168,0.0,2.0,99,0.00,CLR,,0.00,0.0,WeatherDisplay:10.37,2013-04-17 18:55:00,
2013-04-18 05:00:00,64.2,63.4,29.97,South,180,0.0,2.0,97,0.00,CLR,,0.00,0.0,WeatherDisplay:10.37,2013-04-17 19:00:00,
2013-04-18 05:05:00,64.2,63.4,29.97,South,180,0.0,3.0,97,0.00,CLR,,0.00,0.0,WeatherDisplay:10.37,2013-04-17 19:05:00,
2013-04-18 05:10:00,64.2,63.4,29.97,South,180,0.0,1.0,97,0.00,CLR,,0.00,0.0,WeatherDisplay:10.37,2013-04-17 19:10:00,
2013-04-18 05:15:00,64.1,63.3,29.97,South,183,1.0,2.0,97,0.00,CLR,,0.00,0.0,WeatherDisplay:10.37,2013-04-17 19:15:00,
2013-04-18 05:20:00,64.0,63.2,29.97,West,275,0.0,1.0,97,0.00,CLR,,0.00,0.0,WeatherDisplay:10.37,2013-04-17 19:20:00,
2013-04-18 05:25:00,63.9,63.0,29.98,NW,315,0.0,0.0,97,0.00,CLR,,0.00,0.0,WeatherDisplay:10.37,2013-04-17 19:25:00,
2013-04-18 05:30:00,63.9,63.0,29.98,NW,315,0.0,0.0,97,0.00,CLR,,0.00,0.0,WeatherDisplay:10.37,2013-04-17 19:30:00,
2013-04-18 05:35:00,63.9,63.0,29.97,NW,315,0.0,0.0,97,0.00,CLR,,0.00,0.0,WeatherDisplay:10.37,2013-04-17 19:35:00,
2013-04-18 05:40:00,63.9,63.0,29.98,NW,315,0.0,0.0,97,0.00,CLR,,0.00,0.0,WeatherDisplay:10.37,2013-04-17 19:40:00,
2013-04-18 05:45:00,63.5,62.6,29.98,NW,315,0.0,0.0,97,0.00,CLR,,0.00,0.0,WeatherDisplay:10.37,2013-04-17 19:45:00,
2013-04-18 05:50:00,63.7,62.8,29.98,West,268,0.0,0.0,97,0.00,CLR,,0.00,0.0,WeatherDisplay:10.37,2013-04-17 19:50:00,
2013-04-18 05:55:00,63.5,62.6,29.98,SW,225,0.0,0.0,97,0.00,CLR,,0.00,0.0,WeatherDisplay:10.37,2013-04-17 19:55:00,
2013-04-18 06:00:00,63.3,62.5,29.98,SW,225,0.0,0.0,97,0.00,CLR,,0.00,0.0,WeatherDisplay:10.37,2013-04-17 20:00:00,
2013-04-18 06:05:00,63.3,62.5,29.99,SW,225,0.0,0.0,97,0.00,CLR,,0.00,0.0,WeatherDisplay:10.37,2013-04-17 20:05:00,
2013-04-18 06:10:00,63.3,62.5,29.99,SW,225,0.0,0.0,97,0.00,CLR,,0.00,0.0,WeatherDisplay:10.37,2013-04-17 20:10:00,
2013-04-18 06:15:00,63.3,62.5,29.99,SW,225,0.0,0.0,97,0.00,CLR,,0.00,0.0,WeatherDisplay:10.37,2013-04-17 20:15:00,
2013-04-18 06:20:00,63.3,62.4,29.99,SW,225,0.0,0.0,97,0.00,CLR,,0.00,0.0,WeatherDisplay:10.37,2013-04-17 20:20:00,
2013-04-18 06:25:00,63.0,62.1,30.00,SW,222,0.0,0.0,97,0.00,CLR,,0.00,0.1,WeatherDisplay:10.37,2013-04-17 20:25:00,
2013-04-18 06:30:00,63.1,62.3,30.00,SSW,196,0.0,0.0,97,0.00,CLR,,0.00,4.2,WeatherDisplay:10.37,2013-04-17 20:30:00,
2013-04-18 06:35:00,63.0,62.1,30.00,South,180,0.0,0.0,97,0.00,CLR,,0.00,9.0,WeatherDisplay:10.37,2013-04-17 20:35:00,
2013-04-18 06:40:00,63.0,62.1,30.00,South,180,0.0,0.0,97,0.00,CLR,,0.00,12.7,WeatherDisplay:10.37,2013-04-17 20:40:00,
2013-04-18 06:45:00,63.3,62.5,30.00,South,180,0.0,0.0,97,0.00,BKN,,0.00,21.8,WeatherDisplay:10.37,2013-04-17 20:45:00,
2013-04-18 06:50:00,63.4,62.5,30.00,South,180,0.0,0.0,97,0.00,BKN,,0.00,28.9,WeatherDisplay:10.37,2013-04-17 20:50:00,
2013-04-18 06:55:00,63.5,62.6,30.00,South,180,0.0,0.0,97,0.00,BKN,,0.00,37.7,WeatherDisplay:10.37,2013-04-17 20:55:00,
2013-04-18 07:00:00,63.9,63.0,30.01,South,180,0.0,0.0,97,0.00,BKN,,0.00,46.4,WeatherDisplay:10.37,2013-04-17 21:00:00,
2013-04-18 07:05:00,64.0,63.1,30.01,South,180,0.0,0.0,97,0.00,BKN,,0.00,54.3,WeatherDisplay:10.37,2013-04-17 21:05:00,
2013-04-18 07:10:00,64.2,63.4,30.01,South,180,0.0,0.0,97,0.00,BKN,,0.00,61.3,WeatherDisplay:10.37,2013-04-17 21:10:00,
2013-04-18 07:15:00,64.4,64.1,30.01,South,180,0.0,0.0,99,0.00,BKN,,0.00,75.5,WeatherDisplay:10.37,2013-04-17 21:15:00,
2013-04-18 07:20:00,64.9,64.6,30.02,South,180,0.0,0.0,99,0.00,SCT,,0.00,75.8,WeatherDisplay:10.37,2013-04-17 21:20:00,
2013-04-18 07:25:00,65.3,65.0,30.01,South,180,0.0,0.0,99,0.00,FEW,,0.00,111.0,WeatherDisplay:10.37,2013-04-17 21:25:00,
2013-04-18 07:30:00,65.7,65.4,30.02,South,180,0.0,0.0,99,0.00,CLR,,0.00,99.1,WeatherDisplay:10.37,2013-04-17 21:30:00,
2013-04-18 07:35:00,66.0,65.7,30.02,South,180,0.0,0.0,99,0.00,CLR,,0.00,113.0,WeatherDisplay:10.37,2013-04-17 21:35:00,
2013-04-18 07:40:00,66.7,66.4,30.02,South,180,0.0,0.0,99,0.00,CLR,,0.00,96.0,WeatherDisplay:10.37,2013-04-17 21:40:00,
2013-04-18 07:50:00,68.5,68.2,30.02,WSW,240,0.0,0.0,99,0.00,CLR,,0.00,62.0,WeatherDisplay:10.37,2013-04-17 21:50:00,
2013-04-18 07:55:00,69.4,69.1,30.02,NW,311,0.0,0.0,99,0.00,CLR,,0.00,46.0,WeatherDisplay:10.37,2013-04-17 21:55:00,
2013-04-18 08:00:00,69.6,69.3,30.02,NE,54,0.0,0.0,99,0.00,CLR,,0.00,31.0,WeatherDisplay:10.37,2013-04-17 22:00:00,
2013-04-18 08:05:00,69.9,69.3,30.03,ESE,119,0.0,0.0,98,0.00,CLR,,0.00,16.0,WeatherDisplay:10.37,2013-04-17 22:05:00,
2013-04-18 08:10:00,70.8,70.2,30.03,SE,134,0.0,1.0,98,0.00,OVC,,0.00,485.3,WeatherDisplay:10.37,2013-04-17 22:10:00,
2013-04-18 08:15:00,72.5,71.6,30.03,SE,126,0.0,2.0,97,0.00,OVC,,0.00,390.1,WeatherDisplay:10.37,2013-04-17 22:15:00,
2013-04-18 08:20:00,71.3,70.7,30.03,SE,143,2.0,4.0,98,0.00,OVC,,0.00,319.8,WeatherDisplay:10.37,2013-04-17 22:20:00,
2013-04-18 08:25:00,70.5,69.6,30.03,SSE,152,1.0,5.0,97,0.00,OVC,,0.00,313.5,WeatherDisplay:10.37,2013-04-17 22:25:00,
2013-04-18 08:30:00,72.2,70.4,30.03,SSE,163,0.0,2.0,94,0.00,OVC,,0.00,598.6,WeatherDisplay:10.37,2013-04-17 22:30:00,
2013-04-18 08:35:00,74.3,71.2,30.03,South,183,2.0,5.0,90,0.01,RA,,0.01,551.8,WeatherDisplay:10.37,2013-04-17 22:35:00,
2013-04-18 08:40:00,76.0,71.1,30.03,South,179,0.0,3.0,85,0.00,RA,,0.01,550.9,WeatherDisplay:10.37,2013-04-17 22:40:00,
2013-04-18 08:45:00,77.7,71.4,30.03,SE,146,0.0,2.0,81,0.00,OVC,,0.01,562.5,WeatherDisplay:10.37,2013-04-17 22:45:00,
2013-04-18 08:50:00,78.7,70.9,30.03,East,98,0.0,0.0,77,0.00,OVC,,0.01,590.6,WeatherDisplay:10.37,2013-04-17 22:50:00,
2013-04-18 08:55:00,79.0,70.0,30.03,ESE,121,0.0,4.0,74,0.00,OVC,,0.01,614.0,WeatherDisplay:10.37,2013-04-17 22:55:00,
2013-04-18 09:00:00,80.2,71.2,30.03,WSW,243,2.0,4.0,74,0.00,RA,,0.00,648.3,WeatherDisplay:10.37,2013-04-17 23:00:00,
2013-04-18 09:05:00,79.1,70.1,30.03,SSW,212,0.0,5.0,74,0.00,RA,,0.00,686.0,WeatherDisplay:10.37,2013-04-17 23:05:00,
2013-04-18 09:10:00,82.8,72.0,30.04,SW,230,0.0,2.0,70,0.00,OVC,,0.00,757.9,WeatherDisplay:10.37,2013-04-17 23:10:00,
2013-04-18 09:15:00,82.1,69.2,30.04,SE,141,2.0,5.0,65,0.00,OVC,,0.00,802.5,WeatherDisplay:10.37,2013-04-17 23:15:00,
2013-04-18 09:20:00,80.9,69.3,30.03,SE,146,0.0,4.0,68,0.00,OVC,,0.00,840.9,WeatherDisplay:10.37,2013-04-17 23:20:00,
2013-04-18 09:25:00,82.3,70.3,30.03,SE,131,1.0,4.0,67,0.00,OVC,,0.00,874.8,WeatherDisplay:10.37,2013-04-17 23:25:00,
2013-04-18 09:30:00,82.6,69.6,30.03,ENE,67,1.0,4.0,65,0.00,OVC,,0.00,905.3,WeatherDisplay:10.37,2013-04-17 23:30:00,
2013-04-18 09:35:00,83.5,70.5,30.03,ENE,71,1.0,3.0,65,0.00,OVC,,0.00,964.4,WeatherDisplay:10.37,2013-04-17 23:35:00,
2013-04-18 09:40:00,85.3,70.8,30.04,SSE,156,0.0,2.0,62,0.00,OVC,,0.00,1008.1,WeatherDisplay:10.37,2013-04-17 23:40:00,
2013-04-18 09:45:00,86.9,70.8,30.03,SSW,199,0.0,5.0,59,0.00,OVC,,0.00,1042.9,WeatherDisplay:10.37,2013-04-17 23:45:00,
2013-04-18 09:50:00,84.7,68.3,30.03,South,188,1.0,5.0,58,0.00,OVC,,0.00,613.7,WeatherDisplay:10.37,2013-04-17 23:50:00,
2013-04-18 09:55:00,83.8,69.4,30.03,South,176,0.0,3.0,62,0.00,OVC,,0.00,331.0,WeatherDisplay:10.37,2013-04-17 23:55:00,
2013-04-18 10:00:00,83.0,69.1,30.03,SSE,158,0.0,0.0,63,0.00,OVC,,0.00,1105.7,WeatherDisplay:10.37,2013-04-18 00:00:00,
2013-04-18 10:05:00,84.1,69.7,30.04,NNE,14,0.0,0.0,62,0.00,OVC,,0.00,1136.7,WeatherDisplay:10.37,2013-04-18 00:05:00,
2013-04-18 10:10:00,83.5,70.0,30.03,ENE,66,3.0,6.0,64,0.00,OVC,,0.00,1193.7,WeatherDisplay:10.37,2013-04-18 00:10:00,
2013-04-18 10:15:00,82.8,68.5,30.03,South,174,0.0,7.0,62,0.00,OVC,,0.00,1208.5,WeatherDisplay:10.37,2013-04-18 00:15:00,
2013-04-18 10:20:00,83.7,69.3,30.03,South,176,3.0,6.0,62,0.00,OVC,,0.00,1259.2,WeatherDisplay:10.37,2013-04-18 00:20:00,
2013-04-18 10:25:00,82.6,68.3,30.03,SSE,165,1.0,6.0,62,0.00,OVC,,0.00,1302.4,WeatherDisplay:10.37,2013-04-18 00:25:00,
2013-04-18 10:30:00,81.9,68.5,30.03,SSE,158,5.0,8.0,64,0.00,OVC,,0.00,1293.9,WeatherDisplay:10.37,2013-04-18 00:30:00,
2013-04-18 10:35:00,81.9,69.4,30.03,South,174,2.0,8.0,66,0.00,OVC,,0.00,1315.3,WeatherDisplay:10.37,2013-04-18 00:35:00,
2013-04-18 10:40:00,82.6,69.2,30.03,SSE,159,1.0,7.0,64,0.00,OVC,,0.00,1318.9,WeatherDisplay:10.37,2013-04-18 00:40:00,
2013-04-18 10:45:00,84.7,69.7,30.03,ESE,109,3.0,6.0,61,0.00,OVC,,0.00,1342.0,WeatherDisplay:10.37,2013-04-18 00:45:00,
2013-04-18 10:50:00,84.3,68.9,30.03,North,353,2.0,8.0,60,0.00,OVC,,0.00,1368.9,WeatherDisplay:10.37,2013-04-18 00:50:00,
2013-04-18 10:55:00,85.6,70.1,30.02,NNW,335,2.0,5.0,60,0.00,OVC,,0.00,1046.7,WeatherDisplay:10.37,2013-04-18 00:55:00,
2013-04-18 11:00:00,84.3,68.4,30.02,SSE,148,1.0,6.0,59,0.00,OVC,,0.00,888.8,WeatherDisplay:10.37,2013-04-18 01:00:00,
2013-04-18 11:05:00,85.0,69.6,30.02,ESE,109,1.0,5.0,60,0.00,OVC,,0.00,1374.8,WeatherDisplay:10.37,2013-04-18 01:05:00,
2013-04-18 11:10:00,85.6,70.6,30.02,NNW,330,3.0,6.0,61,0.00,OVC,,0.00,1424.1,WeatherDisplay:10.37,2013-04-18 01:10:00,
2013-04-18 11:15:00,85.4,70.9,30.01,NW,319,3.0,7.0,62,0.00,OVC,,0.00,1416.6,WeatherDisplay:10.37,2013-04-18 01:15:00,
2013-04-18 11:20:00,84.7,69.8,30.01,NW,306,1.0,7.0,61,0.00,OVC,,0.00,1200.1,WeatherDisplay:10.37,2013-04-18 01:20:00,
2013-04-18 11:25:00,85.7,70.2,30.00,WNW,299,5.0,9.0,60,0.00,OVC,,0.00,1491.9,WeatherDisplay:10.37,2013-04-18 01:25:00,
2013-04-18 11:30:00,85.4,69.9,30.00,NE,51,2.0,9.0,60,0.00,OVC,,0.00,1470.6,WeatherDisplay:10.37,2013-04-18 01:30:00,
2013-04-18 11:35:00,87.3,69.7,30.00,ENE,66,3.0,5.0,56,0.00,OVC,,0.00,930.6,WeatherDisplay:10.37,2013-04-18 01:35:00,
2013-04-18 11:40:00,88.4,69.6,29.99,NE,36,5.0,6.0,54,0.00,OVC,,0.00,1470.6,WeatherDisplay:10.37,2013-04-18 01:40:00,
2013-04-18 11:45:00,88.2,68.9,29.99,ENE,75,3.0,8.0,53,0.00,OVC,,0.00,1483.7,WeatherDisplay:10.37,2013-04-18 01:45:00,
2013-04-18 11:50:00,87.2,68.0,29.99,NE,44,5.0,8.0,53,0.00,OVC,,0.00,1480.0,WeatherDisplay:10.37,2013-04-18 01:50:00,
2013-04-18 11:55:00,86.9,67.7,29.98,NNE,17,2.0,10.0,53,0.00,OVC,,0.00,1454.0,WeatherDisplay:10.37,2013-04-18 01:55:00,
2013-04-18 12:00:00,86.1,68.0,29.99,NNW,327,1.0,8.0,55,0.00,OVC,,0.00,1442.3,WeatherDisplay:10.37,2013-04-18 02:00:00,
2013-04-18 12:05:00,85.8,68.8,29.98,NW,314,9.0,13.0,57,0.00,OVC,,0.00,1441.9,WeatherDisplay:10.37,2013-04-18 02:05:00,
2013-04-18 12:10:00,84.9,69.0,29.98,NNW,331,5.0,13.0,59,0.00,OVC,,0.00,1427.3,WeatherDisplay:10.37,2013-04-18 02:10:00,
2013-04-18 12:15:00,85.8,68.3,29.98,NNW,328,5.0,7.0,56,0.00,OVC,,0.00,1446.7,WeatherDisplay:10.37,2013-04-18 02:15:00,
2013-04-18 12:20:00,86.0,66.9,29.97,NNW,334,5.0,8.0,53,0.00,OVC,,0.00,1443.9,WeatherDisplay:10.37,2013-04-18 02:20:00,
2013-04-18 12:25:00,85.5,66.9,29.97,NW,325,3.0,8.0,54,0.00,OVC,,0.00,1442.5,WeatherDisplay:10.37,2013-04-18 02:25:00,
2013-04-18 12:30:00,87.0,67.2,29.97,NNW,328,2.0,8.0,52,0.00,OVC,,0.00,1445.2,WeatherDisplay:10.37,2013-04-18 02:30:00,
2013-04-18 12:35:00,88.7,68.8,29.97,NE,46,3.0,8.0,52,0.00,OVC,,0.00,1455.7,WeatherDisplay:10.37,2013-04-18 02:35:00,
2013-04-18 12:40:00,88.3,67.3,29.97,NE,37,7.0,9.0,50,0.00,OVC,,0.00,1450.2,WeatherDisplay:10.37,2013-04-18 02:40:00,
2013-04-18 12:50:00,86.4,65.5,29.96,NNE,20,3.0,11.0,50,0.00,OVC,,0.00,1425.2,WeatherDisplay:10.37,2013-04-18 02:50:00,
2013-04-18 12:55:00,86.5,65.7,29.95,NE,41,2.0,10.0,50,0.00,OVC,,0.00,1425.4,WeatherDisplay:10.37,2013-04-18 02:55:00,
2013-04-18 13:00:00,88.4,66.2,29.95,NE,47,7.0,11.0,48,0.00,OVC,,0.00,1434.3,WeatherDisplay:10.37,2013-04-18 03:00:00,
2013-04-18 13:05:00,87.3,65.8,29.95,NE,36,5.0,10.0,49,0.00,OVC,,0.00,1421.2,WeatherDisplay:10.37,2013-04-18 03:05:00,
2013-04-18 13:10:00,87.6,66.1,29.95,NNE,27,3.0,7.0,49,0.00,OVC,,0.00,1415.7,WeatherDisplay:10.37,2013-04-18 03:10:00,
2013-04-18 13:15:00,88.8,66.6,29.95,NNE,21,6.0,11.0,48,0.00,OVC,,0.00,1413.0,WeatherDisplay:10.37,2013-04-18 03:15:00,
2013-04-18 13:20:00,89.4,67.1,29.94,North,6,6.0,11.0,48,0.00,OVC,,0.00,1407.1,WeatherDisplay:10.37,2013-04-18 03:20:00,
2013-04-18 13:25:00,88.1,67.7,29.94,North,6,6.0,10.0,51,0.00,OVC,,0.00,1384.3,WeatherDisplay:10.37,2013-04-18 03:25:00,
2013-04-18 13:30:00,87.6,66.7,29.94,NNE,17,6.0,9.0,50,0.00,OVC,,0.00,1366.3,WeatherDisplay:10.37,2013-04-18 03:30:00,
2013-04-18 13:40:00,88.5,66.9,29.94,NE,35,6.0,8.0,49,0.00,OVC,,0.00,1353.6,WeatherDisplay:10.37,2013-04-18 03:40:00,
2013-04-18 13:45:00,88.4,66.8,29.93,NNE,15,6.0,9.0,49,0.00,OVC,,0.00,1338.8,WeatherDisplay:10.37,2013-04-18 03:45:00,
2013-04-18 13:50:00,88.1,66.5,29.93,NNE,27,6.0,9.0,49,0.00,OVC,,0.00,1320.9,WeatherDisplay:10.37,2013-04-18 03:50:00,
2013-04-18 13:55:00,88.8,66.6,29.93,North,4,5.0,8.0,48,0.00,OVC,,0.00,1315.0,WeatherDisplay:10.37,2013-04-18 03:55:00,
2013-04-18 14:00:00,88.9,67.2,29.93,North,359,3.0,10.0,49,0.00,OVC,,0.00,1297.8,WeatherDisplay:10.37,2013-04-18 04:00:00,
2013-04-18 14:05:00,88.6,67.0,29.93,ENE,67,7.0,11.0,49,0.00,OVC,,0.00,1277.4,WeatherDisplay:10.37,2013-04-18 04:05:00,
2013-04-18 14:10:00,87.6,67.8,29.93,East,95,6.0,10.0,52,0.00,OVC,,0.00,1262.1,WeatherDisplay:10.37,2013-04-18 04:10:00,
2013-04-18 14:15:00,88.0,66.4,29.93,East,92,5.0,10.0,49,0.00,OVC,,0.00,1237.1,WeatherDisplay:10.37,2013-04-18 04:15:00,
2013-04-18 14:20:00,88.5,66.3,29.92,ENE,61,3.0,8.0,48,0.00,OVC,,0.00,1223.5,WeatherDisplay:10.37,2013-04-18 04:20:00,
2013-04-18 14:25:00,88.1,67.7,29.92,NNE,32,9.0,13.0,51,0.00,OVC,,0.00,1195.2,WeatherDisplay:10.37,2013-04-18 04:25:00,
2013-04-18 14:30:00,88.1,68.8,29.92,NNE,18,7.0,12.0,53,0.00,OVC,,0.00,1167.4,WeatherDisplay:10.37,2013-04-18 04:30:00,
2013-04-18 14:35:00,87.1,68.5,29.92,North,11,9.0,14.0,54,0.00,OVC,,0.00,1146.5,WeatherDisplay:10.37,2013-04-18 04:35:00,
2013-04-18 14:40:00,86.6,69.0,29.92,NE,53,8.0,12.0,56,0.00,OVC,,0.00,1119.2,WeatherDisplay:10.37,2013-04-18 04:40:00,
2013-04-18 14:45:00,86.5,68.5,29.92,ENE,67,6.0,15.0,55,0.00,OVC,,0.00,1095.2,WeatherDisplay:10.37,2013-04-18 04:45:00,
2013-04-18 14:50:00,86.6,69.6,29.92,NE,47,9.0,15.0,57,0.00,OVC,,0.00,1075.8,WeatherDisplay:10.37,2013-04-18 04:50:00,
2013-04-18 14:55:00,86.2,68.6,29.91,NE,36,9.0,14.0,56,0.00,OVC,,0.00,1037.0,WeatherDisplay:10.37,2013-04-18 04:55:00,
2013-04-18 15:00:00,85.9,68.4,29.91,NE,43,8.0,15.0,56,0.00,OVC,,0.00,1013.1,WeatherDisplay:10.37,2013-04-18 05:00:00,
2013-04-18 15:05:00,85.8,69.3,29.91,NE,53,8.0,13.0,58,0.00,OVC,,0.00,980.3,WeatherDisplay:10.37,2013-04-18 05:05:00,
2013-04-18 15:15:00,86.1,69.1,29.91,NE,42,6.0,13.0,57,0.00,OVC,,0.00,935.2,WeatherDisplay:10.37,2013-04-18 05:15:00,
2013-04-18 15:20:00,86.8,69.7,29.91,ENE,60,5.0,12.0,57,0.00,OVC,,0.00,912.7,WeatherDisplay:10.37,2013-04-18 05:20:00,
2013-04-18 15:25:00,86.5,69.0,29.91,NE,50,8.0,12.0,56,0.00,OVC,,0.00,891.3,WeatherDisplay:10.37,2013-04-18 05:25:00,
2013-04-18 15:30:00,86.1,69.6,29.91,NE,45,7.0,13.0,58,0.00,OVC,,0.00,849.9,WeatherDisplay:10.37,2013-04-18 05:30:00,
2013-04-18 15:35:00,85.8,69.3,29.92,NE,45,9.0,13.0,58,0.00,OVC,,0.00,827.8,WeatherDisplay:10.37,2013-04-18 05:35:00,
2013-04-18 15:40:00,85.3,69.8,29.92,NNE,25,8.0,13.0,60,0.00,OVC,,0.00,800.0,WeatherDisplay:10.37,2013-04-18 05:40:00,
2013-04-18 15:50:00,84.5,69.0,29.92,NE,48,9.0,13.0,60,0.00,OVC,,0.00,756.9,WeatherDisplay:10.37,2013-04-18 05:50:00,
2013-04-18 15:55:00,83.8,69.4,29.92,NE,36,10.0,15.0,62,0.00,OVC,,0.00,739.0,WeatherDisplay:10.37,2013-04-18 05:55:00,
2013-04-18 16:00:00,84.1,70.1,29.92,NNE,26,8.0,13.0,63,0.00,OVC,,0.00,720.7,WeatherDisplay:10.37,2013-04-18 06:00:00,
2013-04-18 16:05:00,83.8,69.9,29.92,NNE,23,9.0,14.0,63,0.00,OVC,,0.00,678.2,WeatherDisplay:10.37,2013-04-18 06:05:00,
2013-04-18 16:10:00,83.7,69.7,29.92,NNE,19,7.0,13.0,63,0.00,OVC,,0.00,644.0,WeatherDisplay:10.37,2013-04-18 06:10:00,
2013-04-18 16:15:00,83.2,69.3,29.93,NNE,27,9.0,15.0,63,0.00,OVC,,0.00,608.9,WeatherDisplay:10.37,2013-04-18 06:15:00,
2013-04-18 16:20:00,83.0,69.5,29.93,NE,46,6.0,13.0,64,0.00,OVC,,0.00,575.8,WeatherDisplay:10.37,2013-04-18 06:20:00,
2013-04-18 16:25:00,83.4,69.9,29.93,NE,40,9.0,14.0,64,0.00,OVC,,0.00,547.0,WeatherDisplay:10.37,2013-04-18 06:25:00,
2013-04-18 16:30:00,82.4,69.5,29.93,NNE,32,10.0,13.0,65,0.00,OVC,,0.00,515.4,WeatherDisplay:10.37,2013-04-18 06:30:00,
2013-04-18 16:40:00,82.4,69.4,29.93,NE,35,7.0,15.0,65,0.00,OVC,,0.00,442.1,WeatherDisplay:10.37,2013-04-18 06:40:00,
2013-04-18 16:45:00,82.2,69.2,29.93,NNE,28,10.0,13.0,65,0.00,OVC,,0.00,411.6,WeatherDisplay:10.37,2013-04-18 06:45:00,
2013-04-18 16:50:00,81.9,69.4,29.94,NNE,15,7.0,15.0,66,0.00,OVC,,0.00,367.1,WeatherDisplay:10.37,2013-04-18 06:50:00,
2013-04-18 16:55:00,81.8,69.3,29.94,NNE,14,10.0,13.0,66,0.00,OVC,,0.00,332.4,WeatherDisplay:10.37,2013-04-18 06:55:00,
2013-04-18 17:00:00,81.3,69.3,29.95,NNE,18,6.0,12.0,67,0.00,CLR,,0.00,297.5,WeatherDisplay:10.37,2013-04-18 07:00:00,
2013-04-18 17:10:00,81.5,69.9,29.95,NNE,20,9.0,14.0,68,0.00,CLR,,0.00,232.0,WeatherDisplay:10.37,2013-04-18 07:10:00,
2013-04-18 17:15:00,80.8,69.7,29.95,NNE,16,7.0,13.0,69,0.00,CLR,,0.00,198.0,WeatherDisplay:10.37,2013-04-18 07:15:00,
2013-04-18 17:20:00,80.4,69.7,29.95,NNE,21,6.0,12.0,70,0.00,CLR,,0.00,165.9,WeatherDisplay:10.37,2013-04-18 07:20:00,
2013-04-18 17:25:00,80.3,70.0,29.95,NE,36,6.0,11.0,71,0.00,CLR,,0.00,140.8,WeatherDisplay:10.37,2013-04-18 07:25:00,
2013-04-18 17:30:00,80.0,70.2,29.95,NNE,25,7.0,11.0,72,0.00,CLR,,0.00,115.3,WeatherDisplay:10.37,2013-04-18 07:30:00,
2013-04-18 17:40:00,79.0,69.6,29.95,NE,38,8.0,13.0,73,0.00,CLR,,0.00,69.9,WeatherDisplay:10.37,2013-04-18 07:40:00,
2013-04-18 17:45:00,78.3,69.7,29.96,NE,34,6.0,13.0,75,0.00,CLR,,0.00,38.6,WeatherDisplay:10.37,2013-04-18 07:45:00,
2013-04-18 17:50:00,78.1,69.5,29.96,NE,37,7.0,10.0,75,0.00,CLR,,0.00,58.1,WeatherDisplay:10.37,2013-04-18 07:50:00,
2013-04-18 17:55:00,77.5,69.3,29.96,NNE,28,7.0,11.0,76,0.00,CLR,,0.00,39.1,WeatherDisplay:10.37,2013-04-18 07:55:00,
2013-04-18 18:00:00,76.9,69.5,29.96,NNE,31,5.0,9.0,78,0.00,CLR,,0.00,14.1,WeatherDisplay:10.37,2013-04-18 08:00:00,
2013-04-18 18:05:00,76.3,69.3,29.96,NNE,32,5.0,8.0,79,0.00,CLR,,0.00,7.4,WeatherDisplay:10.37,2013-04-18 08:05:00,
2013-04-18 18:10:00,75.7,69.1,29.96,NNE,26,6.0,8.0,80,0.00,CLR,,0.00,3.0,WeatherDisplay:10.37,2013-04-18 08:10:00,
2013-04-18 18:15:00,75.4,69.5,29.96,NNE,12,6.0,8.0,82,0.00,CLR,,0.00,0.0,WeatherDisplay:10.37,2013-04-18 08:15:00,
2013-04-18 18:20:00,75.1,69.6,29.97,North,5,6.0,9.0,83,0.00,CLR,,0.00,0.0,WeatherDisplay:10.37,2013-04-18 08:20:00,
2013-04-18 18:25:00,74.7,69.9,29.97,North,3,6.0,9.0,85,0.00,CLR,,0.00,0.0,WeatherDisplay:10.37,2013-04-18 08:25:00,
2013-04-18 18:30:00,74.5,69.7,29.97,North,3,5.0,7.0,85,0.00,CLR,,0.00,0.0,WeatherDisplay:10.37,2013-04-18 08:30:00,
2013-04-18 18:35:00,74.2,69.7,29.97,North,4,3.0,6.0,86,0.00,CLR,,0.00,0.0,WeatherDisplay:10.37,2013-04-18 08:35:00,
2013-04-18 18:40:00,73.6,69.5,29.97,North,2,3.0,7.0,87,0.00,CLR,,0.00,0.0,WeatherDisplay:10.37,2013-04-18 08:40:00,
2013-04-18 18:45:00,73.4,69.6,29.97,North,359,5.0,7.0,88,0.00,CLR,,0.00,0.0,WeatherDisplay:10.37,2013-04-18 08:45:00,
2013-04-18 18:50:00,73.1,69.3,29.97,North,3,3.0,6.0,88,0.00,CLR,,0.00,0.0,WeatherDisplay:10.37,2013-04-18 08:50:00,
2013-04-18 19:00:00,73.0,69.6,29.98,North,357,2.0,6.0,89,0.00,CLR,,0.00,0.0,WeatherDisplay:10.37,2013-04-18 09:00:00,
2013-04-18 19:05:00,72.9,69.4,29.98,North,356,3.0,6.0,89,0.00,CLR,,0.00,0.0,WeatherDisplay:10.37,2013-04-18 09:05:00,
2013-04-18 19:10:00,72.7,69.6,29.98,North,8,5.0,6.0,90,0.00,CLR,,0.00,0.0,WeatherDisplay:10.37,2013-04-18 09:10:00,
2013-04-18 19:15:00,72.7,69.9,29.98,North,7,3.0,6.0,91,0.00,CLR,,0.00,0.0,WeatherDisplay:10.37,2013-04-18 09:15:00,
2013-04-18 19:20:00,72.5,69.7,29.98,North,4,3.0,6.0,91,0.00,CLR,,0.00,0.0,WeatherDisplay:10.37,2013-04-18 09:20:00,
2013-04-18 19:25:00,72.3,69.5,29.99,North,353,1.0,6.0,91,0.00,CLR,,0.00,0.0,WeatherDisplay:10.37,2013-04-18 09:25:00,
2013-04-18 19:30:00,72.1,69.4,29.99,North,352,3.0,4.0,91,0.00,CLR,,0.00,0.0,WeatherDisplay:10.37,2013-04-18 09:30:00,
2013-04-18 19:35:00,72.0,69.5,29.99,North,352,3.0,4.0,92,0.00,CLR,,0.00,0.0,WeatherDisplay:10.37,2013-04-18 09:35:00,
2013-04-18 19:40:00,71.9,69.5,30.00,NNW,343,1.0,4.0,92,0.00,CLR,,0.00,0.0,WeatherDisplay:10.37,2013-04-18 09:40:00,
2013-04-18 19:45:00,71.8,69.6,30.00,NW,326,1.0,3.0,93,0.00,CLR,,0.00,0.0,WeatherDisplay:10.37,2013-04-18 09:45:00,
2013-04-18 19:50:00,71.6,69.5,30.00,NNW,327,1.0,3.0,93,0.00,CLR,,0.00,0.0,WeatherDisplay:10.37,2013-04-18 09:50:00,
2013-04-18 19:55:00,71.4,69.6,30.00,NNW,343,2.0,4.0,94,0.00,CLR,,0.00,0.0,WeatherDisplay:10.37,2013-04-18 09:55:00,
2013-04-18 20:00:00,71.2,69.7,30.00,NNW,332,3.0,4.0,95,0.00,CLR,,0.00,0.0,WeatherDisplay:10.37,2013-04-18 10:00:00,
2013-04-18 20:05:00,71.1,69.6,30.01,NW,322,1.0,4.0,95,0.00,CLR,,0.00,0.0,WeatherDisplay:10.37,2013-04-18 10:05:00,
2013-04-18 20:10:00,70.9,69.7,30.01,NNW,327,1.0,3.0,96,0.00,CLR,,0.00,0.0,WeatherDisplay:10.37,2013-04-18 10:10:00,
2013-04-18 20:15:00,70.7,69.5,30.01,NNW,337,0.0,3.0,96,0.00,CLR,,0.00,0.0,WeatherDisplay:10.37,2013-04-18 10:15:00,
2013-04-18 20:20:00,70.7,69.5,30.01,NNW,336,0.0,2.0,96,0.00,CLR,,0.00,0.0,WeatherDisplay:10.37,2013-04-18 10:20:00,
2013-04-18 20:25:00,70.7,69.5,30.01,NNW,332,0.0,2.0,96,0.00,CLR,,0.00,0.0,WeatherDisplay:10.37,2013-04-18 10:25:00,
2013-04-18 20:30:00,70.5,69.3,30.01,NW,322,0.0,0.0,96,0.00,CLR,,0.00,0.0,WeatherDisplay:10.37,2013-04-18 10:30:00,
2013-04-18 20:35:00,70.2,69.0,30.01,NW,315,0.0,0.0,96,0.00,CLR,,0.00,0.0,WeatherDisplay:10.37,2013-04-18 10:35:00,
2013-04-18 20:40:00,70.1,68.9,30.01,NW,315,0.0,0.0,96,0.00,CLR,,0.00,0.0,WeatherDisplay:10.37,2013-04-18 10:40:00,
2013-04-18 20:45:00,69.8,68.6,30.01,NW,315,0.0,0.0,96,0.00,CLR,,0.00,0.0,WeatherDisplay:10.37,2013-04-18 10:45:00,
2013-04-18 20:50:00,69.8,68.6,30.02,NW,315,0.0,0.0,96,0.00,CLR,,0.00,0.0,WeatherDisplay:10.37,2013-04-18 10:50:00,
2013-04-18 20:55:00,69.6,69.0,30.01,NW,315,0.0,0.0,98,0.00,CLR,,0.00,0.0,WeatherDisplay:10.37,2013-04-18 10:55:00,
2013-04-18 21:00:00,69.4,68.9,30.02,NW,315,0.0,2.0,98,0.00,CLR,,0.00,0.0,WeatherDisplay:10.37,2013-04-18 11:00:00,
2013-04-18 21:05:00,69.4,68.9,30.02,NW,315,0.0,0.0,98,0.00,CLR,,0.00,0.0,WeatherDisplay:10.37,2013-04-18 11:05:00,
2013-04-18 21:10:00,69.3,68.7,30.02,NW,315,0.0,0.0,98,0.00,CLR,,0.00,0.0,WeatherDisplay:10.37,2013-04-18 11:10:00,
2013-04-18 21:15:00,69.1,68.5,30.02,NW,315,0.0,0.0,98,0.00,CLR,,0.00,0.0,WeatherDisplay:10.37,2013-04-18 11:15:00,
2013-04-18 21:20:00,68.9,68.3,30.02,NW,306,0.0,0.0,98,0.00,CLR,,0.00,0.0,WeatherDisplay:10.37,2013-04-18 11:20:00,
2013-04-18 21:25:00,68.9,68.3,30.02,WNW,283,0.0,1.0,98,0.00,CLR,,0.00,0.0,WeatherDisplay:10.37,2013-04-18 11:25:00,
2013-04-18 21:30:00,68.7,68.4,30.02,West,270,0.0,0.0,99,0.00,CLR,,0.00,0.0,WeatherDisplay:10.37,2013-04-18 11:30:00,
2013-04-18 21:35:00,68.7,68.4,30.02,West,270,0.0,0.0,99,0.00,CLR,,0.00,0.0,WeatherDisplay:10.37,2013-04-18 11:35:00,
2013-04-18 21:40:00,68.5,68.2,30.02,West,270,0.0,0.0,99,0.00,CLR,,0.00,0.0,WeatherDisplay:10.37,2013-04-18 11:40:00,
2013-04-18 21:45:00,68.3,68.0,30.02,West,270,0.0,0.0,99,0.00,CLR,,0.00,0.0,WeatherDisplay:10.37,2013-04-18 11:45:00,
2013-04-18 21:50:00,68.2,67.9,30.02,West,270,0.0,0.0,99,0.00,CLR,,0.00,0.0,WeatherDisplay:10.37,2013-04-18 11:50:00,
2013-04-18 21:55:00,68.2,67.9,30.02,West,279,0.0,0.0,99,0.00,CLR,,0.00,0.0,WeatherDisplay:10.37,2013-04-18 11:55:00,
2013-04-18 22:00:00,68.2,67.9,30.02,WNW,302,0.0,0.0,99,0.00,CLR,,0.00,0.0,WeatherDisplay:10.37,2013-04-18 12:00:00,
2013-04-18 22:10:00,68.4,68.1,30.02,WNW,296,0.0,0.0,99,0.00,CLR,,0.00,0.0,WeatherDisplay:10.37,2013-04-18 12:10:00,
2013-04-18 22:15:00,68.2,67.9,30.01,WSW,254,0.0,0.0,99,0.00,CLR,,0.00,0.0,WeatherDisplay:10.37,2013-04-18 12:15:00,
2013-04-18 22:20:00,67.8,67.5,30.02,SW,225,0.0,0.0,99,0.00,CLR,,0.00,0.0,WeatherDisplay:10.37,2013-04-18 12:20:00,
2013-04-18 22:25:00,67.8,67.5,30.02,SW,225,0.0,0.0,99,0.00,CLR,,0.00,0.0,WeatherDisplay:10.37,2013-04-18 12:25:00,
2013-04-18 22:30:00,67.8,67.5,30.01,WSW,249,0.0,0.0,99,0.00,CLR,,0.00,0.0,WeatherDisplay:10.37,2013-04-18 12:30:00,
2013-04-18 22:35:00,67.6,67.3,30.02,NNW,346,0.0,0.0,99,0.00,CLR,,0.00,0.0,WeatherDisplay:10.37,2013-04-18 12:35:00,
2013-04-18 22:40:00,67.5,67.2,30.02,North,0,0.0,0.0,99,0.00,CLR,,0.00,0.0,WeatherDisplay:10.37,2013-04-18 12:40:00,
2013-04-18 22:45:00,67.3,67.0,30.02,North,0,0.0,0.0,99,0.00,CLR,,0.00,0.0,WeatherDisplay:10.37,2013-04-18 12:45:00,
2013-04-18 22:50:00,67.3,67.0,30.02,North,0,0.0,0.0,99,0.00,CLR,,0.00,0.0,WeatherDisplay:10.37,2013-04-18 12:50:00,
2013-04-18 22:55:00,67.5,67.2,30.02,North,0,0.0,0.0,99,0.00,CLR,,0.00,0.0,WeatherDisplay:10.37,2013-04-18 12:55:00,
2013-04-18 23:00:00,67.5,67.2,30.02,North,0,0.0,0.0,99,0.00,CLR,,0.00,0.0,WeatherDisplay:10.37,2013-04-18 13:00:00,
2013-04-18 23:05:00,67.2,67.0,30.01,North,358,0.0,0.0,99,0.00,CLR,,0.00,0.0,WeatherDisplay:10.37,2013-04-18 13:05:00,
2013-04-18 23:10:00,67.1,66.8,30.02,NW,306,0.0,0.0,99,0.00,CLR,,0.00,0.0,WeatherDisplay:10.37,2013-04-18 13:10:00,
2013-04-18 23:15:00,67.1,66.8,30.02,West,270,0.0,0.0,99,0.00,CLR,,0.00,0.0,WeatherDisplay:10.37,2013-04-18 13:15:00,
2013-04-18 23:20:00,66.9,66.6,30.02,West,270,0.0,0.0,99,0.00,CLR,,0.00,0.0,WeatherDisplay:10.37,2013-04-18 13:20:00,
2013-04-18 23:25:00,66.6,66.3,30.01,West,270,0.0,0.0,99,0.00,CLR,,0.00,0.0,WeatherDisplay:10.37,2013-04-18 13:25:00,
2013-04-18 23:30:00,66.6,66.3,30.01,West,270,0.0,0.0,99,0.00,CLR,,0.00,0.0,WeatherDisplay:10.37,2013-04-18 13:30:00,
2013-04-18 23:35:00,66.6,66.3,30.01,West,270,0.0,0.0,99,0.00,CLR,,0.00,0.0,WeatherDisplay:10.37,2013-04-18 13:35:00,
2013-04-18 23:40:00,66.6,66.3,30.01,West,270,0.0,0.0,99,0.00,CLR,,0.00,0.0,WeatherDisplay:10.37,2013-04-18 13:40:00,
2013-04-18 23:45:00,66.4,66.1,30.01,West,270,0.0,0.0,99,0.00,CLR,,0.00,0.0,WeatherDisplay:10.37,2013-04-18 13:45:00,
2013-04-18 23:50:00,66.2,65.9,30.01,West,270,0.0,0.0,99,0.00,CLR,,0.00,0.0,WeatherDisplay:10.37,2013-04-18 13:50:00,
2013-04-18 23:55:00,66.0,65.7,30.01,West,270,0.0,0.0,99,0.00,CLR,,0.00,0.0,WeatherDisplay:10.37,2013-04-18 13:55:00,